Zurück zum Katalog

STARLINK-34401

AktivKommunikationVLEO
NORAD 64757·PAYLOAD·🇺🇸 United States

Gestartet Jul 8, 2025 von Cape Canaveral Space Force Station

Loading…

Nächste Überflüge (nächste 24 Stunden)

TLE

AktuellSource: CelesTrak SupGP

Epoche: Sep 15, 2026, 02:48 UTC

1 64757C 25147C   26258.11715278 -.00024778  00000+0 -73230-3 0  2588
2 64757  53.1572  78.9481 0001241  87.8351 121.7109 15.34393543    13

Verfolge STARLINK-34401 in Echtzeit mit AllMySat

Download on the App Store